Vorticity
8 11 9 11 15 20 17 13 9 7 14 12 18 17 16 4 1 8 30 12 16 24
5 14 13 13 15 20 14 1 24 17 2 17 9 14 26 4 28 7 9 18 17 22
-0 16 14 12 13 19 15 14 13 22 10 17 4 8 13 16 10 9 2 20 9 10
2 19 13 10 14 13 16 17 18 18 15 11 19 16 14 10 17 15 5 2 13 11
21 17 10 14 15 13 16 17 16 17 13 14 9 19 15 17 13 16 14 9 7 6
16 13 15 12 5 4 6 10 11 14 14 15 15 13 15 15 10 9 8 17 14 9
6 7 10 15 13 12 7 4 4 8 12 13 12 14 16 20 26 18 15 8 9 10
15 15 15 18 18 13 12 11 9 9 6 6 4 4 7 6 10 19 22 28 29 24
18 6 5 6 14 18 14 14 13 7 6 7 6 -1 9 8 10 6 13 17 24 30
7 7 8 8 9 14 19 15 9 8 6 8 9 13 5 22 19 9 7 21 27 35
10 15 15 12 17 11 23 10 14 19 17 11 14 16 33 5 31 35 4 21 16 11
9 16 21 41 27 26 15 19 16 9 9 8 8 0 17 18 9 6 9 13 26 19
20 8 12 11 17 15 23 24 10 5 8 7 6 9 6 10 8 3 9 6 4 3
8 7 26 10 32 31 17 4 4 6 5 7 9 12 10 12 8 7 7 6 5 6
Height
5639 5635 5631 5628 5624 5621 5619 5617 5615 5614 5613 5612 5611 5611 5610 5611 5610 5608 5606 5606 5605 5605
5628 5623 5619 5615 5612 5609 5606 5604 5602 5601 5601 5599 5598 5597 5596 5598 5597 5595 5594 5592 5590 5590
5616 5612 5607 5604 5601 5598 5595 5592 5591 5590 5590 5588 5588 5587 5586 5585 5584 5583 5581 5580 5580 5580
5605 5600 5596 5593 5590 5587 5584 5582 5580 5579 5579 5578 5577 5575 5574 5573 5572 5570 5570 5569 5569 5568
5592 5588 5585 5583 5581 5578 5575 5572 5570 5569 5568 5567 5566 5565 5563 5562 5560 5559 5559 5558 5557 5555
5581 5578 5576 5575 5572 5570 5567 5565 5562 5560 5558 5557 5556 5554 5553 5551 5549 5547 5546 5545 5543 5542
5572 5569 5567 5565 5562 5560 5559 5557 5555 5554 5552 5550 5548 5546 5544 5541 5538 5534 5533 5530 5528 5526
5562 5560 5557 5554 5553 5551 5550 5549 5548 5547 5545 5544 5543 5540 5536 5532 5528 5524 5520 5516 5512 5508
5553 5550 5548 5546 5545 5543 5542 5541 5541 5540 5540 5539 5537 5533 5529 5527 5523 5517 5512 5506 5499 5493
5544 5541 5539 5538 5536 5535 5534 5534 5533 5534 5534 5533 5530 5528 5525 5519 5516 5513 5509 5502 5494 5486
5535 5532 5530 5528 5527 5526 5526 5527 5527 5527 5527 5526 5524 5521 5518 5516 5511 5509 5506 5501 5495 5488
5527 5524 5520 5516 5516 5516 5518 5519 5520 5521 5521 5520 5519 5516 5514 5511 5506 5504 5502 5497 5493 5487
5519 5516 5513 5511 5510 5510 5512 5513 5514 5515 5516 5515 5513 5512 5509 5506 5502 5500 5499 5495 5491 5487
5512 5509 5507 5505 5505 5506 5508 5508 5510 5511 5511 5510 5509 5508 5506 5503 5500 5497 5495 5492 5490 5487